TimeCDT,TemperatureF,Dew PointF,Humidity,Sea Level PressureIn,VisibilityMPH,Wind Direction,Wind SpeedMPH,Gust SpeedMPH,PrecipitationIn,Events,Conditions,WindDirDegrees,DateUTC
12:19 AM,51.8,42.8,71,30.05,10.0,SE,6.9,-,N/A,,Overcast,140,2013-10-30 05:19:00
12:54 AM,52.0,45.0,77,30.05,9.0,SE,9.2,-,N/A,,Overcast,130,2013-10-30 05:54:00
1:54 AM,51.1,46.9,86,30.05,7.0,SSE,8.1,-,N/A,,Overcast,150,2013-10-30 06:54:00
2:54 AM,51.1,46.9,86,30.04,6.0,SE,9.2,-,N/A,,Overcast,140,2013-10-30 07:54:00
3:54 AM,51.1,46.0,83,30.02,6.0,SE,6.9,-,N/A,,Haze,130,2013-10-30 08:54:00
4:24 AM,51.8,46.4,82,30.01,5.0,SE,4.6,-,N/A,,Overcast,130,2013-10-30 09:24:00
4:54 AM,51.1,46.9,86,30.01,5.0,SE,6.9,-,N/A,,Overcast,130,2013-10-30 09:54:00
5:54 AM,51.1,48.9,92,29.99,4.0,SE,6.9,-,N/A,,Overcast,130,2013-10-30 10:54:00
6:54 AM,51.1,50.0,96,29.98,3.0,SE,8.1,-,N/A,,Overcast,140,2013-10-30 11:54:00
7:07 AM,51.8,50.0,94,29.96,2.5,SE,9.2,-,N/A,,Overcast,140,2013-10-30 12:07:00
7:54 AM,51.1,50.0,96,29.97,2.0,SE,8.1,-,N/A,,Overcast,130,2013-10-30 12:54:00
8:03 AM,51.8,51.8,100,29.96,1.8,SE,8.1,-,N/A,,Overcast,130,2013-10-30 13:03:00
8:26 AM,51.8,51.8,100,29.97,0.8,SE,6.9,-,N/A,,Overcast,130,2013-10-30 13:26:00
8:54 AM,52.0,51.1,97,29.98,0.8,SSE,8.1,-,N/A,,Overcast,150,2013-10-30 13:54:00
9:54 AM,52.0,52.0,100,29.96,0.5,ESE,5.8,-,N/A,Fog,Fog,120,2013-10-30 14:54:00
10:54 AM,52.0,52.0,100,29.97,0.5,ESE,3.5,-,N/A,Fog,Fog,110,2013-10-30 15:54:00
11:38 AM,53.6,51.8,94,29.97,0.5,Calm,Calm,-,N/A,Fog-Thunderstorm,Fog,0,2013-10-30 16:38:00
11:54 AM,52.0,52.0,100,29.99,0.5,SE,3.5,-,0.00,Fog-Rain-Thunderstorm,Light Rain,130,2013-10-30 16:54:00
12:02 PM,51.8,51.8,100,29.98,0.2,SE,6.9,-,0.01,Fog-Rain,Rain,130,2013-10-30 17:02:00
12:16 PM,51.8,51.8,100,29.98,0.5,SSE,10.4,-,0.07,Fog-Rain,Heavy Rain,150,2013-10-30 17:16:00
12:28 PM,51.8,51.8,100,29.95,1.5,SE,13.8,-,0.13,Rain,Heavy Rain,140,2013-10-30 17:28:00
12:54 PM,53.1,52.0,96,29.98,1.8,South,11.5,-,0.23,Rain,Rain,180,2013-10-30 17:54:00
1:04 PM,53.6,53.6,100,29.97,2.0,SSE,12.7,-,0.04,Rain,Rain,160,2013-10-30 18:04:00
1:12 PM,53.6,53.6,100,29.96,1.8,SSE,11.5,-,0.09,Rain,Rain,150,2013-10-30 18:12:00
1:24 PM,53.6,53.6,100,29.95,2.5,SSE,9.2,-,0.13,Rain,Light Rain,150,2013-10-30 18:24:00
1:29 PM,53.6,53.6,100,29.94,2.0,SE,8.1,-,0.14,Rain-Thunderstorm,Thunderstorms and Rain,130,2013-10-30 18:29:00
1:46 PM,53.6,53.6,100,29.92,2.5,East,3.5,-,0.19,Rain,Rain,100,2013-10-30 18:46:00
1:54 PM,53.1,53.1,100,29.92,3.0,SE,4.6,-,0.20,Rain,Light Rain,140,2013-10-30 18:54:00
2:18 PM,53.6,53.6,100,29.84,2.5,ESE,15.0,19.6,0.01,Rain,Light Rain,120,2013-10-30 19:18:00
2:23 PM,53.6,53.6,100,29.83,3.0,SE,17.3,-,0.01,Rain,Light Rain,130,2013-10-30 19:23:00
2:37 PM,55.4,53.6,94,29.83,3.0,SE,18.4,-,0.01,,Overcast,140,2013-10-30 19:37:00
2:54 PM,55.0,54.0,96,29.80,7.0,SE,18.4,-,0.01,,Mostly Cloudy,140,2013-10-30 19:54:00
3:04 PM,57.2,55.4,94,29.80,9.0,SSE,15.0,21.9,N/A,,Scattered Clouds,150,2013-10-30 20:04:00
3:54 PM,59.0,55.0,87,29.77,10.0,SE,19.6,25.3,N/A,,Partly Cloudy,140,2013-10-30 20:54:00
4:54 PM,60.1,55.0,83,29.77,10.0,SSE,15.0,21.9,N/A,,Clear,150,2013-10-30 21:54:00
5:54 PM,57.0,55.0,93,29.75,10.0,SSE,11.5,-,N/A,,Clear,160,2013-10-30 22:54:00
6:17 PM,57.2,55.4,94,29.75,10.0,SSE,15.0,-,N/A,,Scattered Clouds,160,2013-10-30 23:17:00
6:27 PM,57.2,55.4,94,29.75,10.0,South,16.1,21.9,N/A,,Mostly Cloudy,170,2013-10-30 23:27:00
6:54 PM,55.9,54.0,93,29.76,10.0,South,13.8,-,N/A,,Overcast,170,2013-10-30 23:54:00
7:54 PM,55.9,55.0,97,29.74,10.0,SSE,11.5,-,N/A,,Overcast,160,2013-10-31 00:54:00
8:09 PM,57.2,55.4,94,29.75,10.0,SSE,10.4,-,N/A,,Overcast,160,2013-10-31 01:09:00
8:40 PM,57.2,55.4,94,29.73,10.0,SSE,10.4,-,N/A,,Overcast,160,2013-10-31 01:40:00
8:54 PM,57.0,55.0,93,29.73,10.0,South,9.2,-,N/A,,Overcast,170,2013-10-31 01:54:00
9:15 PM,57.2,55.4,94,29.72,10.0,SSE,10.4,-,0.00,Rain,Light Rain,160,2013-10-31 02:15:00
9:38 PM,57.2,55.4,94,29.70,10.0,SSE,11.5,-,0.00,,Overcast,160,2013-10-31 02:38:00
9:54 PM,57.0,55.0,93,29.71,10.0,SSE,10.4,-,0.00,,Overcast,160,2013-10-31 02:54:00
9:59 PM,57.2,55.4,94,29.70,10.0,SSE,10.4,-,N/A,,Overcast,160,2013-10-31 02:59:00
10:33 PM,57.2,55.4,94,29.69,2.5,SSE,9.2,-,0.02,Rain,Rain,150,2013-10-31 03:33:00
10:46 PM,57.2,55.4,94,29.68,5.0,SSE,10.4,-,0.03,Rain,Light Rain,150,2013-10-31 03:46:00
10:54 PM,57.0,55.9,96,29.68,2.5,SSE,10.4,-,0.06,Rain,Heavy Rain,160,2013-10-31 03:54:00
11:17 PM,57.2,55.4,94,29.66,5.0,SSE,13.8,-,0.10,Rain,Light Rain,150,2013-10-31 04:17:00
11:54 PM,57.9,57.0,97,29.64,10.0,South,9.2,-,0.10,,Overcast,180,2013-10-31 04:54:00